Regional Weather Roundup
Issued by NWS

Home | Current Version | Previous Version | Text Only | Print | Product List | Glossary Off
Versions: 1 2 3 4 5 6 7 8 9 10 11 12 13 14 15 16 17 18 19 20 21 22 23 24 25 26 27 28 29 30 31 32 33 34 35 36 37 38 39 40 41 42 43 44 45 46 47 48 49 50

021
ASUS45 KBOU 171907
RWRCO

WEATHER ROUNDUP FOR COLORADO
NATIONAL WEATHER SERVICE DENVER/BOULDER CO
1200 PM MST TUE JAN 17 2017

NOTE: "FAIR" INDICATES FEW OR NO CLOUDS BELOW 12000 FEET WITH NO
SIGNIFICANT WEATHER AND/OR OBSTRUCTIONS TO VISIBILITY.

COZ001>005-013-030-031-172000-
...NORTHWEST COLORADO...

CITY           SKY/WX    TMP DP  RH WIND       PRES   REMARKS
CRAIG          CLOUDY    16  12  84 SW3       30.23F FOG
HAYDEN         FAIR      19  12  73 SW3       30.19F
MEEKER         CLOUDY    23  18  81 CALM      30.20F
MOUNT WERNER   NOT AVBL
STEAMBOAT SPGS FAIR      21  13  70 CALM      30.18F
WALDEN           N/A    N/A N/A N/A CALM      30.17F VSB 1/4
$$

COZ006>008-011-172000-
...WEST CENTRAL VALLEYS...

CITY           SKY/WX    TMP DP  RH WIND       PRES   REMARKS
GRAND JUNCTION FAIR      40  24  53 CALM      30.20F
MONTROSE       FAIR      37  27  67 CALM      30.21F
EAGLE          PTSUNNY   30  23  74 CALM      30.21F
RIFLE          FAIR      33  21  61 CALM      30.20F
DELTA          CLOUDY    40  29  65 CALM      30.21F
NUCLA          PTSUNNY   37  28  70 CALM      30.22F
$$

COZ017>023-064>068-172000-
...SOUTHWEST COLORADO...

CITY           SKY/WX    TMP DP  RH WIND       PRES   REMARKS
DURANGO        CLOUDY    36  36 100 CALM      30.16F
CORTEZ         CLOUDY    41  36  82 VRB3      30.17F
PAGOSA SPRINGS CLOUDY    35  31  85 CALM      30.17F
TELLURIDE      FAIR     N/A N/A N/A W7        30.17F
WOLF CREEK PAS CLOUDY    19  19 100 S3        30.22F
$$

COZ009-010-012-014-032>034-037-058>063-172000-
...CENTRAL COLORADO...

CITY           SKY/WX    TMP DP  RH WIND       PRES   REMARKS
ASPEN          FAIR      31  20  63 N3        30.14F
BUENA VISTA    FAIR      31  21  67 CALM      30.11F
COPPER MTN     FAIR      27  19  74 CALM      30.17S
BERTHOUD PASS  NOT AVBL
COTTONWOOD PAS FAIR      34  23  64 E6        30.11F WCI  29
GUNNISON       PTSUNNY   26  23  88 SE3       30.18F
KREMMLING      CLOUDY    30  21  69 CALM      30.21F
LEADVILLE      FAIR      33  16  49 N6        30.11F WCI  28
MONARCH PASS   CLOUDY    19  18  93 MISG      30.25F
SALIDA         FAIR      38  29  69 N8        30.17F
SUNLIGHT       PTSUNNY   25  23  93 CALM      30.20F FOG
WILKERSON PASS FAIR      30  14  51 CALM      30.14F
$$

COZ069>075-172000-
...SAN LUIS VALLEY/SANGRE DE CRISTO MOUNTAINS...

CITY           SKY/WX    TMP DP  RH WIND       PRES   REMARKS
ALAMOSA        CLOUDY    31  29  92 NW3       30.15F
LA VETA PASS   CLOUDY    28  25  86 NE26G35   30.11F FOG     WCI  13
SAGUACHE       CLOUDY    32  30  93 SE5       30.16F WCI  27
$$

COZ035-036-038>040-172000-
...NORTHERN COLORADO FRONT RANGE...

CITY           SKY/WX    TMP DP  RH WIND       PRES   REMARKS
DENVER INTL AP FAIR      38  25  59 SW7       30.02F
DMNS CITY PARK   N/A     43  22  43 SW2G9     30.01F
AURORA         MOSUNNY   40  26  58 SW5       30.02F
FRONT RANGE AP SUNNY     41  28  60 SW7       30.03F
ERIE MUNI ARPT FAIR      37  25  62 CALM      30.03F
BOULDER MUN AP FAIR      37  27  65 CALM      30.02F
CENTENNIAL     FAIR      38  27  64 SE5       30.02F
BROOMFIELD     MOSUNNY   37  25  60 CALM      30.03F
FORT COLLINS   FAIR      37  21  52 SW5       30.02F
LONGMONT       FAIR      39  27  61 CALM      30.05F
$$

COZ041-046-047-076>085-087-088-172000-
...PIKES PEAK/PALMER DIVIDE AND SOUTHERN FOOTHILLS...

CITY           SKY/WX    TMP DP  RH WIND       PRES   REMARKS
COLO. SPRINGS  FAIR      32  28  85 NW3       30.06F
A. F. ACADEMY  FAIR      36  28  71 CALM      30.03F
SCHRIEVER AFB  NOT AVBL
ELLICOTT       PTSUNNY  N/A N/A N/A W5        30.05F
FALCON         FAIR      34  29  83 CALM      30.05F
FORT CARSON    PTSUNNY   37  30  75 VRB1      30.07F
LIMON          FAIR      39  31  72 S14       30.05F
MONUMENT HILL  FAIR      39  27  60 W5        30.04F
TRINIDAD       FAIR      35  28  75 W3        30.06F
$$

COZ042>045-048>051-090-091-172000-
...NORTHEAST COLORADO...

CITY           SKY/WX    TMP DP  RH WIND       PRES   REMARKS
GREELEY ARPT   FAIR      38  26  62 VRB3      30.04F
AKRON          FAIR      36  28  73 SW12      30.03F
BURLINGTON     FAIR      40  33  76 SW13      30.07F
WRAY           NOT AVBL
STERLING       FAIR      32  27  80 S12       30.03F WCI  23
HOLYOKE        FAIR      43  28  56 SW7       30.04F
FORT MORGAN    FAIR      35  24  63 SW7       30.04F WCI  30
$$

COZ086-089-092>099-172000-
...SOUTHEAST COLORADO...

CITY           SKY/WX    TMP DP  RH WIND       PRES   REMARKS
PUEBLO         CLOUDY    35  32  88 CALM      30.08F
LA JUNTA       FAIR      33  28  81 SW6       30.09F WCI  28
LAMAR          FAIR      34  30  85 NW5       30.09F WCI  30
SPRINGFIELD      N/A     39  32  76 S15       30.10F
$$




USA.gov is the U.S. government's official web portal to all federal, state and local government web resources and services.